Theta_e
327 335 348 350 349 349 348 348 348 349 348 349 350 348 347 348 347 347 347 348 348 347 347 344 343 342 343 342 341 339 338 338 337 339 339 341 348 347 350 350 350 349 351
329 337 346 349 351 350 350 349 348 349 349 349 347 346 344 343 342 341 342 343 345 344 344 342 339 336 336 337 337 335 335 334 332 333 335 338 346 351 350 349 349 349 350
331 336 344 347 350 351 350 349 349 349 348 347 347 345 344 341 338 337 338 339 341 342 340 337 335 333 333 333 332 331 331 329 329 331 333 340 346 348 347 346 346 346 349
333 338 343 345 349 350 349 349 350 350 348 347 347 345 342 339 336 335 335 336 338 337 336 334 330 327 327 328 326 326 328 327 330 328 332 336 341 347 346 345 344 344 345
333 337 340 344 348 350 349 348 349 349 348 347 345 341 338 337 335 334 332 335 336 334 330 327 323 322 322 322 324 324 324 326 324 324 328 335 340 346 346 344 342 341 343
332 335 339 344 348 349 348 349 348 348 347 345 340 338 337 335 333 330 332 331 329 327 325 322 321 321 320 320 320 319 319 319 317 321 324 329 343 344 343 342 340 340 340
329 331 336 341 344 347 348 347 346 343 342 339 338 336 335 333 329 325 328 326 325 323 322 321 322 320 320 319 318 317 315 313 311 315 319 325 335 337 337 337 338 336 336
326 327 331 335 338 340 341 341 339 340 340 338 337 335 333 329 326 324 325 323 323 322 322 322 321 319 318 317 315 314 311 307 307 311 316 322 331 332 332 332 331 331 332
323 324 327 333 335 333 335 336 337 338 339 337 335 333 330 326 324 324 323 322 322 322 321 319 318 318 316 314 311 309 307 305 304 308 312 319 326 328 328 328 327 327 327
318 321 324 327 330 331 332 330 333 335 336 334 332 329 326 325 324 324 323 323 321 320 318 317 316 314 312 310 308 305 302 301 300 304 308 314 320 324 325 324 325 324 324
313 316 319 323 325 326 328 327 328 330 331 328 326 323 320 318 318 318 317 322 320 317 315 313 312 309 307 306 304 301 298 297 298 301 305 311 316 319 321 321 322 322 323
311 312 315 318 320 321 321 324 325 323 325 322 319 316 312 311 311 310 314 319 318 315 312 310 307 302 296 296 296 296 295 295 296 297 303 308 312 315 317 319 320 322 323
313 312 311 314 316 317 318 318 318 318 317 315 313 309 308 306 308 309 309 307 306 304 302 300 296 295 295 295 294 294 294 294 295 295 300 304 309 312 314 317 320 321 321
308 310 311 311 313 313 314 314 314 313 312 310 309 305 304 303 304 304 303 302 301 299 296 295 295 294 294 293 294 293 293 294 294 295 297 302 307 311 315 318 318 320 320
306 308 309 310 312 312 310 312 311 311 309 308 305 303 301 301 302 301 299 296 295 294 294 293 293 293 293 292 292 292 292 293 293 294 297 303 308 313 315 318 319 319 321
305 306 307 308 310 310 310 309 310 309 308 305 303 301 299 299 300 299 295 293 293 293 293 293 292 292 292 292 291 291 292 292 292 293 295 302 306 311 315 317 318 320 317
304 305 305 307 309 308 309 308 309 307 304 304 302 300 298 297 297 297 294 292 292 292 292 291 291 291 291 290 290 291 291 291 292 293 294 297 304 308 313 314 315 318 314
302 302 304 305 306 307 308 308 308 306 304 303 301 299 297 297 296 294 293 292 291 291 291 291 290 289 290 290 289 289 290 291 292 292 294 296 300 304 308 307 308 310 308
301 300 301 303 304 305 307 307 306 304 303 302 300 298 297 296 295 294 293 292 291 290 290 290 288 289 289 289 288 289 289 291 290 289 292 295 298 298 298 299 298 299 300
299 300 300 300 303 303 304 304 303 301 302 300 299 297 296 296 294 294 293 291 290 289 289 289 288 288 289 288 286 287 289 290 290 289 291 291 294 292 291 291 292 292 296
298 298 297 296 299 300 301 299 298 297 298 297 298 297 296 296 294 293 292 291 289 289 289 289 288 287 287 287 287 287 287 287 287 288 290 291 290 289 290 290 290 291 290
298 297 297 296 297 298 300 300 301 300 299 298 297 296 296 295 294 293 292 290 289 288 288 288 287 286 287 286 288 287 285 286 288 287 287 287 288 288 288 288 288 289 289
296 296 296 297 296 297 299 299 292 294 293 294 294 293 293 294 293 293 292 291 289 289 288 287 288 288 286 285 285 289 284 287 285 286 286 287 287 287 288 287 287 287 288
296 297 296 296 296 296 297 296 295 296 293 294 295 294 293 293 292 293 291 290 289 289 288 287 287 288 287 285 284 284 285 287 286 283 285 286 286 286 286 287 287 287 288
296 296 295 295 295 296 295 296 295 295 296 294 295 293 293 292 292 291 290 289 289 288 288 287 286 286 287 286 286 284 284 284 284 285 283 284 284 286 286 286 286 287 286
294 294 294 294 294 294 294 295 294 294 295 291 292 291 291 291 290 290 289 289 288 287 287 286 287 287 286 286 285 285 285 284 283 284 283 283 284 284 285 285 285 286 286
Wind_Speed
7 10 13 15 17 15 13 11 10 10 10 10 10 10 10 11 10 11 11 10 12 12 12 12 13 12 12 12 13 13 11 12 13 13 13 13 12 8 10 10 8 10 12
10 10 11 14 15 16 14 13 10 10 11 11 11 9 8 7 6 7 9 9 11 9 11 13 11 9 8 9 11 10 11 11 12 12 12 11 13 11 15 14 14 13 13
14 11 12 12 13 15 14 13 12 12 12 11 12 11 11 9 5 5 5 7 7 9 10 9 8 8 8 8 8 8 9 10 11 11 11 7 9 13 14 14 14 14 14
13 11 10 12 12 14 14 13 13 13 13 12 12 12 12 8 6 5 5 5 6 7 8 9 8 8 7 8 7 7 8 10 11 11 7 7 7 10 13 14 14 14 14
12 11 9 13 14 14 14 12 12 13 14 15 15 9 7 8 7 6 5 6 7 8 8 8 7 7 7 8 8 8 9 11 11 8 8 7 5 10 13 13 13 14 12
10 8 9 11 15 16 15 15 14 13 14 12 7 7 7 7 7 7 8 9 8 8 8 8 8 9 9 9 9 9 11 11 9 8 8 10 10 12 13 14 13 14 13
9 7 6 8 8 14 16 16 15 9 6 8 10 9 9 9 9 8 8 9 9 9 9 9 10 9 10 10 10 10 11 11 7 7 8 8 8 11 12 13 13 12 13
11 7 6 7 7 8 9 8 13 12 11 11 11 12 11 11 10 10 10 9 9 10 10 10 11 10 10 11 11 11 13 10 7 8 8 7 9 10 10 11 10 10 12
8 9 8 7 7 9 9 8 11 12 12 12 13 13 12 12 11 11 11 11 11 10 10 11 11 11 10 11 11 12 13 12 8 6 6 5 8 9 10 10 9 10 10
7 9 9 9 8 7 7 9 10 11 11 12 12 11 10 10 10 9 9 11 11 10 10 10 11 11 11 11 12 11 10 11 8 6 6 5 7 7 8 9 9 9 9
7 9 8 9 8 8 7 6 8 9 11 11 10 11 9 5 7 6 6 9 10 10 10 9 10 10 11 11 12 11 9 5 5 5 4 7 7 7 8 8 8 9 10
13 12 10 9 9 7 6 6 7 6 6 6 6 7 6 6 5 5 5 8 11 10 10 10 10 9 6 4 4 7 4 5 4 4 4 7 6 6 6 7 7 9 10
13 8 12 10 9 10 8 6 4 4 5 6 9 8 7 5 4 4 3 3 4 8 4 6 5 3 5 3 4 4 4 4 3 3 4 5 5 6 6 6 9 10 10
12 13 12 13 11 10 6 7 7 7 6 6 8 10 7 5 6 6 4 5 4 3 5 4 3 4 5 4 4 4 4 3 2 2 2 3 4 6 7 9 9 11 12
13 13 14 14 13 11 11 8 8 9 8 8 9 9 8 8 8 6 6 5 5 5 4 4 4 4 4 4 4 4 4 3 3 2 2 2 5 8 9 10 11 11 16
14 15 14 17 16 14 14 13 10 9 9 9 8 9 11 8 8 8 7 7 6 6 5 5 5 4 3 4 4 3 3 3 3 4 3 3 4 6 11 11 11 15 14
16 14 17 17 16 17 18 14 11 10 9 9 9 12 12 11 11 11 8 8 8 7 8 5 4 3 3 3 4 3 2 3 3 4 3 3 3 5 10 12 11 14 12
11 16 15 14 18 19 17 13 11 10 11 10 9 9 13 12 13 10 8 8 8 7 7 6 6 4 3 4 4 3 3 4 4 4 4 4 3 4 11 13 11 11 10
14 14 15 16 19 20 17 13 13 13 12 11 10 10 14 14 13 11 9 8 10 7 7 8 5 4 5 4 4 4 4 4 4 3 5 4 5 6 6 12 13 11 9
12 13 13 13 17 17 11 10 9 9 11 10 12 13 17 14 15 12 9 9 9 8 7 7 6 4 3 5 5 5 4 4 3 3 4 4 5 5 5 6 4 6 10
7 10 14 15 16 12 12 12 11 15 14 12 12 16 16 14 16 16 11 11 11 11 10 10 5 6 3 5 5 4 4 4 4 3 4 4 5 4 4 4 3 3 4
6 10 11 14 14 15 12 11 7 10 11 11 10 11 14 16 16 14 14 13 14 10 11 11 7 5 3 7 4 3 4 3 2 2 3 3 5 3 4 4 5 5 4
7 9 11 12 14 15 16 8 2 3 2 8 10 11 14 16 16 17 17 14 14 12 12 13 10 8 5 4 6 2 4 4 4 3 6 4 5 2 3 3 4 4 4
8 8 8 9 12 12 14 13 18 14 12 11 12 10 12 16 16 16 15 14 15 11 12 12 10 9 6 6 2 2 3 2 4 4 3 5 5 5 3 2 2 3 4
6 4 5 6 9 10 13 14 11 15 11 3 7 11 13 13 16 15 15 14 13 10 11 13 12 11 7 6 4 4 2 2 2 2 4 5 4 5 4 2 1 3 4
7 6 5 6 8 8 12 15 16 16 13 6 9 11 10 9 10 14 16 14 14 13 13 11 11 12 11 6 6 6 5 5 5 4 2 2 3 3 2 2 3 3 4
Wind_Direction
218 181 182 179 168 165 162 155 155 150 145 140 134 126 113 92 86 77 65 81 81 81 80 78 66 50 50 54 56 51 46 40 40 34 28 26 27 76 75 63 57 57 52
156 180 181 180 174 171 165 159 159 160 157 149 134 127 123 116 99 100 73 65 80 86 82 75 74 63 57 54 51 49 45 43 44 42 32 30 30 78 68 54 49 46 44
162 175 186 182 182 174 166 167 170 165 166 155 142 150 129 115 121 119 112 104 101 85 77 78 74 65 65 64 56 50 51 49 46 45 41 46 58 74 71 64 57 51 40
164 171 173 177 181 172 166 178 178 175 164 162 162 145 129 131 164 141 106 106 112 107 97 87 80 77 72 74 66 60 63 65 56 53 55 45 47 77 75 67 61 54 50
170 168 173 175 180 175 172 185 176 171 169 163 160 146 158 159 162 141 148 131 119 106 99 88 89 87 85 71 65 63 73 74 69 63 57 41 61 80 81 76 65 56 43
169 168 172 167 184 182 178 181 178 178 165 176 147 153 178 180 156 150 147 127 120 114 104 101 96 90 78 72 69 66 71 72 66 62 57 34 66 75 75 75 68 59 51
168 172 177 179 181 176 179 173 169 165 165 155 170 184 184 173 164 159 146 138 132 122 123 113 100 88 81 73 64 65 67 64 65 59 51 37 63 72 70 65 60 56 57
169 175 186 195 183 161 157 170 193 189 196 185 179 182 181 174 168 163 153 144 136 135 124 115 105 93 83 77 71 63 63 61 61 60 48 37 42 66 69 70 61 51 59
178 176 184 193 191 173 170 195 194 198 197 181 183 184 179 178 172 166 156 153 147 137 125 118 109 101 94 86 79 74 68 63 61 48 44 38 32 61 68 68 68 61 61
192 194 191 190 191 185 183 204 181 196 180 175 179 177 168 169 166 164 159 160 151 137 127 118 111 104 97 91 84 77 72 68 65 53 36 28 31 57 68 71 71 72 66
218 212 202 194 191 183 176 187 187 179 168 166 170 158 142 149 148 139 157 162 146 137 126 115 105 93 80 75 73 70 66 62 66 59 45 18 34 52 62 66 72 73 74
213 209 203 199 192 178 174 183 178 159 165 159 153 148 147 148 151 150 170 153 143 139 131 123 111 99 91 83 71 67 70 71 66 53 34 25 46 57 67 73 82 83 77
211 204 202 196 193 184 182 176 179 171 166 161 163 160 156 154 159 152 132 111 107 98 103 109 117 103 96 96 87 84 83 74 74 78 45 26 44 68 76 90 85 86 84
197 207 196 195 193 195 183 184 178 177 175 173 174 166 163 166 174 166 156 146 139 140 138 132 124 116 106 100 99 102 102 104 105 99 65 60 71 92 109 96 98 94 89
214 207 202 193 197 191 194 189 187 188 183 178 176 178 168 173 177 168 166 163 160 155 161 151 147 138 133 121 99 103 92 86 95 103 105 58 104 116 117 112 111 104 88
216 210 196 200 197 189 196 192 194 189 185 181 181 183 181 176 176 178 172 176 173 175 168 164 165 158 141 133 114 108 108 96 105 120 127 104 92 122 116 116 111 112 94
215 205 200 199 199 199 199 196 194 193 185 189 190 185 183 182 183 179 176 179 179 175 160 157 150 139 134 128 116 112 107 106 124 128 123 121 108 34 108 117 114 105 93
215 207 200 195 196 199 204 199 196 191 191 194 190 189 190 187 184 181 182 185 175 170 166 161 159 160 161 166 145 127 125 125 120 110 125 128 123 87 83 88 89 88 79
209 206 205 200 201 202 204 197 199 195 198 191 189 190 188 188 183 181 185 181 172 172 174 167 166 174 171 155 132 122 115 134 115 113 128 126 115 101 99 91 79 62 55
207 209 205 201 205 201 198 199 200 197 205 198 196 195 187 187 181 182 180 173 171 173 178 180 168 164 159 155 128 105 112 120 115 89 122 114 111 100 88 82 63 51 53
216 202 202 195 200 186 192 190 202 209 203 203 203 199 192 191 185 181 178 172 175 181 184 179 157 169 165 168 132 97 85 88 112 106 125 134 129 109 104 93 81 75 57
247 220 210 208 198 196 199 205 217 212 217 211 205 205 199 189 188 189 181 179 179 174 179 182 176 156 139 188 155 123 151 157 192 112 145 141 149 99 120 80 95 77 89
264 241 227 219 207 199 199 190 146 124 172 196 201 201 199 193 186 187 187 183 181 182 184 182 187 174 156 193 235 159 146 192 146 177 206 186 188 170 153 98 97 96 100
257 253 228 210 205 206 200 199 202 208 210 213 205 202 195 193 192 191 189 187 185 186 186 186 182 180 153 164 184 247 352 100 164 170 206 216 217 214 181 150 96 117 129
286 313 258 227 218 206 200 208 218 223 219 177 198 190 193 193 194 192 188 184 185 187 193 186 179 188 185 163 163 155 141 50 32 133 162 182 222 217 201 194 183 160 154
2 343 322 250 231 194 196 210 209 219 219 193 180 182 187 187 195 192 188 188 184 184 187 190 193 195 193 184 172 171 165 166 179 162 148 174 178 153 193 244 210 179 162